Regional Weather Roundup
Issued by NWS

Home | Current Version | Previous Version | Text Only | Print | Product List | Glossary On
Versions: 1 2 3 4 5 6 7 8 9 10 11 12 13 14 15 16 17 18 19 20 21 22 23 24 25 26 27 28 29 30 31 32 33 34 35 36 37 38 39 40 41 42 43 44 45 46 47 48 49 50
000
ASUS45 KABQ 231110
RWRNM
WEATHER ROUNDUP FOR NEW MEXICO
NATIONAL WEATHER SERVICE ALBUQUERQUE NM
500 AM MDT TUE SEP 23 2014

NOTE: "FAIR" MEANS FEW OR NO CLOUDS BELOW 12,000 FEET AGL WITH NO
       SIGNIFICANT WEATHER OR OBSTRUCTIONS TO VISION.

      THIS PRODUCT IS RELEASED AS TWO VERSIONS.  ONE VERSION NEAR
      THE TOP OF THE HOUR CONTAINING PRELIMINARY DATA FROM ALBUQUERQUE
      AND OTHER STATIONS.  A FINAL VERSION WITH ADDITIONAL DATA IS
      ISSUED ABOUT 10 MINUTES AFTER THE HOUR.

NMZ501-503-504-510>518-231200-
NORTHWEST PLATEAU/NORTHCENTRAL MOUNTAINS

CITY           SKY/WX    TMP DP  RH WIND       PRES   REMARKS
FARMINGTON     CLEAR     55  44  66 NE9       30.22S
LOS ALAMOS     FOG       55  55 100 S7        30.34S VSB 1
SANTA FE       CLOUDY    60  57  89 CALM      30.29S
TAOS           MOCLDY    54  50  87 SE3       30.34S
ANGEL FIRE     FAIR      50  47  90 W12       30.40S

$$
NMZ402-403-502-505>509-231200-
WESTCENTRAL MOUNTAINS/SOUTHWEST MOUNTAINS

CITY           SKY/WX    TMP DP  RH WIND       PRES   REMARKS
GALLUP         MOCLDY    58  54  86 CALM      30.29R
GRANTS         FOG       54  54 100 CALM      30.32S VSB 3/4
SILVER CITY    MOCLDY    63  63 100 E6        30.27S

$$
NMZ407-409-411-412-231200-
SOUTHERN DESERTS

CITY           SKY/WX    TMP DP  RH WIND       PRES   REMARKS
LORDSBURG      FAIR      64  63  94 MISG      30.18S
DEMING         CLOUDY    67  65  93 E6        30.19F
LAS CRUCES     CLOUDY    65  64  94 CALM      30.20F
HOLLOMAN AFB   MOCLDY    66  66 100 SE8       30.15F
ALAMOGORDO     CLOUDY    64  64 100 SE5       30.18F
T OR C         PTCLDY    62  59  90 W6        30.20F

$$
NMZ519>523-231200-
CENTRAL VALLEYS/CENTRAL HIGHLANDS

CITY           SKY/WX    TMP DP  RH WIND       PRES   REMARKS
ALBUQUERQUE    PTCLDY    62  56  80 SW5       30.26R
DOUBLE EAGLE   PTCLDY    57  56  99 CALM      30.28S
MORIARTY ARPT  CLOUDY    56  54  93 CALM      30.31S FOG
CLINES CORNERS FOG       57  56  96 SW8       30.32S VSB 3/4
BELEN          FAIR      58  57  96 CALM      30.25R
SOCORRO        FAIR      59  58  94 SW5       30.22S

$$
NMZ524>526-539-540-231200-
SOUTHCENTRAL MOUNTAINS

CITY           SKY/WX    TMP DP  RH WIND       PRES   REMARKS
RUIDOSO        NOT AVBL

$$
NMZ527>531-231200-
NORTHEAST HIGHLANDS/NORTHEAST PLAINS

CITY           SKY/WX    TMP DP  RH WIND       PRES   REMARKS
LAS VEGAS      CLOUDY    56  55  97 SW15      30.30S FOG
RATON          CLOUDY    58  56  93 S5        30.24F
CLAYTON        CLOUDY    63  59  87 SW15      30.17S

$$
NMZ532>537-231200-
EASTCENTRAL PLAINS

CITY           SKY/WX    TMP DP  RH WIND       PRES   REMARKS
TUCUMCARI      PTCLDY    63  60  90 SW7       30.18S
CANNON AFB     MOCLDY    62  60  95 S6        30.23S FOG
CLOVIS AIRPORT   N/A     63  61  94 S8        30.25S

$$
NMZ028-029-538-231200-
SOUTHEAST PLAINS

CITY           SKY/WX    TMP DP  RH WIND       PRES   REMARKS
ROSWELL        CLOUDY    67  64  90 CALM      30.19S
CARLSBAD       PTCLDY    63  32  31 N5        30.15S HAZE


$$



USA.gov is the U.S. government's official web portal to all federal, state and local government web resources and services.